This is the latest recevied weather packets stored in our database for station/object KD7ECD. If no packets are shown the sender has not sent any weather packets the latest 10 day(s).
| Time | Temp. | Humidity | Pressure | Rain* | Wind** | Luminosity | Snow |
|---|---|---|---|---|---|---|---|
| 1777829535 | 14.44° C | 73% | 1015 hPa | 0 mm | - | 370 W/m² | - |
| 1777828935 | 15° C | 73% | 1015.2 hPa | 0 mm | - | 698 W/m² | - |
| 1777828334 | 15° C | 72% | 1015 hPa | 0 mm | - | 640 W/m² | - |
| 1777827734 | 14.44° C | 73% | 1015.2 hPa | 0 mm | - | 688 W/m² | - |
| 1777827134 | 14.44° C | 76% | 1015 hPa | 0 mm | - | 837 W/m² | - |
| 1777826528 | 13.89° C | 77% | 1015 hPa | 0 mm | - | 301 W/m² | - |
| 1777825927 | 13.33° C | 78% | 1014.9 hPa | 0 mm | - | 205 W/m² | - |
| 1777825322 | 13.89° C | 78% | 1014.8 hPa | 0 mm | - | 622 W/m² | - |
| 1777824720 | 13.33° C | 80% | 1014.6 hPa | 0 mm | - | 547 W/m² | - |
| 1777824119 | 12.78° C | 82% | 1014.9 hPa | 0 mm | - | 565 W/m² | - |
| 1777823513 | 12.78° C | 83% | 1014.7 hPa | 0 mm | - | 202 W/m² | - |
| 1777822914 | 12.78° C | 85% | 1014.6 hPa | 0 mm | - | 397 W/m² | - |
| 1777822309 | 12.78° C | 86% | 1014.6 hPa | 0 mm | - | 207 W/m² | - |
| 1777821704 | 12.22° C | 86% | 1014.7 hPa | 0 mm | - | 362 W/m² | - |
| 1777821103 | 12.22° C | 87% | 1014.5 hPa | 0 mm | - | 207 W/m² | - |
| 1777820502 | 12.22° C | 87% | 1014.5 hPa | 0 mm | - | 161 W/m² | - |
| 1777819897 | 11.67° C | 88% | 1014.7 hPa | 0 mm | - | 116 W/m² | - |
| 1777819298 | 11.67° C | 89% | 1014.7 hPa | 0 mm | - | 77 W/m² | - |
| 1777818697 | 11.67° C | 89% | 1014.8 hPa | 0 mm | - | 61 W/m² | - |
| 1777818096 | 11.11° C | 90% | 1014.5 hPa | 0 mm | - | 55 W/m² | - |
| 1777817496 | 11.11° C | 90% | 1014.1 hPa | 0 mm | - | 35 W/m² | - |
| 1777816895 | 11.11° C | 90% | 1014.4 hPa | 0 mm | - | 19 W/m² | - |
| 1777816294 | 11.11° C | 91% | 1014.1 hPa | 0 mm | - | 10 W/m² | - |
| 1777815689 | 11.11° C | 91% | 1014 hPa | 0 mm | - | 8 W/m² | - |
| 1777815089 | 11.11° C | 91% | 1013.9 hPa | 0 mm | - | 4 W/m² | - |
* Rain latest hour (hover to see other rain measurements)
** Current wind speed in m/s (hover to see current wind gust speed)